Find Starlink 32348

NORAD ID: 61631 Int'l Des: 2024-191 Owner: SPXS Country: US Constellation: starlink operational
LEOCIRCULAR

Current View

Loading 3D Globe...

About Starlink 32348

Starlink 32348 (NORAD 61631) is a starlink constellation satellite (v2 mini) launched Oct 23, 2024 by SPXS of US. It operates in LEO, CIRCULAR orbit with a mass of 730.00 kg.

Upcoming Passes

Passes for default location (London). Set your location on the main map for personalized predictions.

Altitude History

Loading altitude history...

Two-Line Element Set

1 61631U 24191L 26264.05306058 .00000573 00000-0 30346-4 0 9996
2 61631 43.0007 134.7503 0001217 269.5423 90.5289 15.27580383107371
Epoch: Sep 21, 2026 • Age: 14 hours

Current Status

Altitude 493.4 km
Apogee / Perigee N/A
Velocity 7.62 km/s
Sub-Earth Point -37.77°S, 143.43°E
Launch Date Oct 23, 2024
Age 1.9 years
Type internet

Technical Details

Classification Payload
Mass 730.00 kg
Dry Mass 700.00 kg
Length 0.30 m
Span 29.00 m
Shape ? Box + pan
Manufacturer SPXS
Bus Type Starlink V2M
Phase Status In Orbit
Owner/State SPXS/US

Most Searched